Regional Weather Roundup
Issued by NWS

Home | Current Version | Previous Version | Text Only | Print | Product List | Glossary Off
Versions: 1 2 3 4 5 6 7 8 9 10 11 12 13 14 15 16 17 18 19 20 21 22 23 24 25 26 27 28 29 30 31 32 33 34 35 36 37 38 39 40 41 42 43 44 45 46 47 48 49 50

423
ASUS43 KLOT 092003
RWRIL

ILLINOIS REGIONAL WEATHER ROUNDUP
NATIONAL WEATHER SERVICE CHICAGO/ROMEOVILLE IL
200 PM CST TUE FEB 09 2016

NOTE: "FAIR" INDICATES FEW OR NO CLOUDS BELOW 12,000 FEET WITH NO
SIGNIFICANT WEATHER AND/OR OBSTRUCTIONS TO VISIBILITY.

* THESE STATIONS ARE NOT UNDER NWS QUALITY CONTROL. THEY ALSO MAY NOT
  REPORT WEATHER SUCH AS PRECIPITATION OR FOG.

ILZ001-002-007-009-015-016-024-092100-
NORTHWEST ILLINOIS

CITY           SKY/WX    TMP DP  RH WIND       PRES   REMARKS
MOLINE         CLOUDY    17   7  64 W21G32    29.98S WCI   0
STERLING*      CLOUDY    19   9  63 NW18G26   29.89S WCI   4
$$

ILZ003-004-008-010-011-017-018-092100-
NORTH CENTRAL ILLINOIS

CITY           SKY/WX    TMP DP  RH WIND       PRES   REMARKS
ROCKFORD       FLURRIES  17   6  62 NW18G24   29.90R WCI   1
FREEPORT*      CLOUDY    16   7  67 NW14G23   29.91S WCI   2
DE KALB*       CLOUDY    16   8  71 NW18      29.86R WCI   0
$$

ILZ005-006-012>014-019>023-092100-
NORTHEAST ILLINOIS

CITY           SKY/WX    TMP DP  RH WIND       PRES   REMARKS
CHICAGO-OHARE  FLURRIES  18   8  65 NW16G22   29.83R WCI   3
CHICAGO-MIDWAY FLURRIES  19   7  59 NW16      29.84R WCI   4
AURORA         CLOUDY    18   8  65 NW16      29.87R WCI   3
WAUKEGAN       CLOUDY    17   7  64 NW10G22   29.82R WCI   5
DUPAGE AIRPORT MIX PCPN  16   6  65 NW17      29.84S WCI   0
WHEELING       CLOUDY    17   7  64 NW14      29.85R WCI   3
NORTHERLY ISL    N/A     19   9  65 NW13        N/A  WCI   6
$$

LMZ740>746-092100-
SOUTHERN LAKE MICHIGAN

STATION/POSITION SKY/WX   TEMP    WIND        PRES    VSBY  WAVE
                          AIR SEA DIR/SP/G                  HT/PER
                          (F)     (DEG/KT/KT) (MB)    (MI)  (FT/S)
HARRISON CRIB              19     310/ 13/ 15   N/A
BURNHAM HARBOR             19     300/ 13/ 15   N/A
CALUMET HARBOR             19     300/  8/ 15 1009.3F
BURNS HARBOR               20     310/ 17/ 22 1009.8S
MICHIGAN CITY              20     280/ 20/ 23   N/A
$$

ILZ025>027-034>036-040-047-049-050-058-095>099-092100-
WEST-CENTRAL ILLINOIS

CITY           SKY/WX    TMP DP  RH WIND       PRES   REMARKS
QUINCY         CLOUDY    19   9  65 NW21      30.03S WCI   3
MACOMB*        FLURRIES  17  11  77 NW23G30   30.02S WCI  -1
$$

ILZ028>032-037-038-041>044-048-051>054-059>061-092100-
CENTRAL ILLINOIS

CITY           SKY/WX    TMP DP  RH WIND       PRES   REMARKS
BLOOMINGTON    LGT SNOW  18  10  70 NW18      29.90R WCI   2
DECATUR        LGT SNOW  19   9  65 NW20G31   29.92R WCI   3
PEORIA         CLOUDY    19   6  57 NW12G23   29.95R WCI   7
LINCOLN*       CLOUDY    20  13  72 NW13G20   29.94S HAZE    WCI   8
SPRINGFIELD    CLOUDY    20   9  62 NW22G30   29.97S WCI   3
TAYLORVILLE    NOT AVBL
$$

ILZ033-039-045-046-055>057-062-063-092100-
EAST-CENTRAL ILLINOIS

CITY           SKY/WX    TMP DP  RH WIND       PRES   REMARKS
CHAMPAIGN      LGT SNOW  19  12  74 NW23      29.89R WCI   2
MATTOON        LGT SNOW  19  13  77 NW21      29.91R WCI   3
$$

ILZ079-100>102-092100-
SOUTHWEST ILLINOIS

CITY           SKY/WX    TMP DP  RH WIND       PRES   REMARKS
BELLEVILLE     FLURRIES  21  12  68 W12       30.01S WCI   9
CAHOKIA*       FLURRIES  23  10  57 NW21G28   30.04S WCI   8
SPARTA*        CLOUDY    19  11  71 NW14G21   30.03R WCI   6
$$

ILZ064>066-069>071-074>076-080>082-084>086-088>090-092>094-092100-
SOUTH-CENTRAL ILLINOIS

CITY           SKY/WX    TMP DP  RH WIND       PRES   REMARKS
CARBONDALE     LGT SNOW  21  12  68 NW15      30.02R WCI   8
MARION         CLOUDY    23  14  68 NW10G21   30.02R WCI  12
MT. VERNON     CLOUDY    19   9  63 W5G20     29.99R WCI  13
CENTRALIA*     FLURRIES  21  13  69 NW20G29   29.98R WCI   6
SALEM*         LGT SNOW  21  13  68 W13       29.97R WCI   9
$$

ILZ067-068-072-073-078-083-087-091-092100-
SOUTHEAST ILLINOIS

CITY           SKY/WX    TMP DP  RH WIND       PRES   REMARKS
LAWRENCEVILLE  LGT SNOW  21  14  74 NW18      29.93S WCI   6
HARRISBURG*    LGT SNOW  22  16  79 NW18G24   30.00R WCI   7
$$

ABBREVIATIONS USED IN REMARKS
   TC - TEMPERATURE IN CELSIUS
  WCI - WIND CHILL INDEX
   HX - HEAT INDEX
  VSB - VISIBILITY
$$





USA.gov is the U.S. government's official web portal to all federal, state and local government web resources and services.